Temp
73 73 72 71 72 71 70 71 72 72 73 72 73 73 73 73 73 72 72 72 72 71 72 72 72 72 71 71 70 70 69 68 67 68 70 67 65 65 65 64 64 62 63
75 74 73 72 71 71 71 71 72 71 72 72 72 70 71 73 71 72 72 73 72 72 72 71 72 76 72 71 71 70 70 70 67 67 68 67 65 64 63 61 65 67 62
72 73 73 71 70 71 71 71 71 72 72 71 71 71 71 71 71 71 71 71 72 72 72 72 72 72 71 70 70 70 69 71 69 67 67 68 66 62 61 62 61 60 66
69 70 70 70 71 73 72 71 71 71 71 71 72 72 72 71 71 72 72 72 72 73 73 73 72 72 71 71 70 70 69 69 69 68 67 66 67 64 61 59 57 58 62
67 67 68 68 69 70 71 72 72 71 72 71 72 72 71 72 74 72 72 72 71 72 73 73 73 73 72 71 71 71 69 68 68 67 67 66 66 65 63 60 57 56 57
67 67 67 66 67 69 69 70 70 71 71 72 71 72 72 75 71 69 72 72 72 72 71 70 72 72 71 68 67 68 70 69 67 67 67 66 67 67 67 64 59 55 54
67 67 67 67 66 66 68 69 69 70 69 70 71 71 72 72 67 67 68 71 71 70 71 71 72 74 70 70 66 65 65 64 67 68 67 67 66 67 66 67 64 60 59
66 66 67 67 66 66 67 68 69 69 69 70 70 71 71 70 64 64 66 70 70 70 71 71 71 71 70 68 65 63 61 60 60 64 62 58 57 58 60 65 66 64 58
65 66 67 66 66 67 67 68 67 67 68 68 69 70 69 67 59 61 65 69 69 69 69 67 65 69 66 63 66 61 56 56 60 60 60 60 59 60 60 61 62 61 58
65 66 67 67 67 67 67 68 68 67 66 67 66 66 63 62 59 59 63 67 67 67 62 61 60 60 59 59 65 59 56 56 58 56 56 56 56 56 58 56 57 60 56
67 66 66 66 67 66 65 65 65 65 65 64 62 61 60 61 60 58 59 65 66 65 64 60 60 58 56 55 58 60 59 58 59 60 58 57 57 56 55 55 55 58 54
66 66 66 65 65 64 63 63 63 63 62 62 61 59 59 59 57 57 57 57 62 63 61 55 54 52 52 55 58 57 57 58 58 57 55 52 51 51 52 52 53 53 54
65 63 62 61 61 62 61 60 60 61 60 60 59 58 57 57 57 55 54 56 57 57 56 54 53 52 53 55 56 56 57 58 57 55 52 51 52 53 54 54 54 55 54
62 60 58 57 55 55 56 55 57 59 59 58 57 57 57 57 57 56 56 56 56 56 56 56 55 56 55 56 57 57 57 57 56 54 52 52 53 53 52 53 50 53 53
59 58 57 56 54 50 48 50 53 49 48 58 58 57 56 55 54 50 53 55 55 53 55 56 55 55 55 55 56 56 56 55 54 53 53 53 53 54 54 54 55 55 55
58 57 55 54 54 53 52 50 47 46 45 44 47 52 51 48 48 45 45 46 49 50 55 55 54 54 54 54 54 54 54 54 53 53 52 50 50 52 54 51 52 55 54
57 56 54 54 53 53 53 53 51 50 46 43 43 43 45 44 44 44 44 46 47 50 54 53 53 53 53 53 53 53 52 53 53 53 52 50 50 51 50 51 51 50 49
58 54 56 56 56 55 55 54 50 49 49 49 46 46 44 42 41 41 43 46 51 51 52 53 52 52 53 53 53 53 53 52 50 48 49 51 51 50 49 48 48 49 48
58 57 55 54 55 57 56 51 50 50 49 47 46 45 44 41 41 42 44 51 51 50 51 50 51 51 50 50 49 47 47 47 46 47 47 46 46 47 46 46 45 47 47
54 57 55 53 53 52 51 50 49 48 47 46 46 46 44 46 48 49 50 50 50 51 51 50 50 48 47 47 47 46 46 46 45 45 45 46 46 46 46 46 46 45 44
53 53 57 53 53 53 53 52 50 49 49 48 48 47 45 47 48 47 49 49 50 51 51 51 49 49 48 47 47 46 46 46 45 45 46 45 44 45 44 44 44 45 44
55 53 53 53 52 52 53 53 53 53 51 50 49 48 44 45 47 48 48 49 50 51 51 51 50 49 49 48 47 47 46 46 45 45 45 44 44 44 44 43 43 43 43
55 54 54 53 54 54 53 52 51 52 53 53 52 50 46 46 47 48 50 51 51 51 51 50 51 50 49 49 49 49 48 48 48 47 46 45 44 44 43 43 43 42 42
57 57 56 55 54 54 54 53 52 51 53 53 52 51 49 48 49 50 51 51 51 52 52 51 51 52 51 50 50 49 49 49 48 48 48 46 44 43 43 42 42 43 42
56 56 56 56 56 53 53 53 53 53 54 54 54 53 51 50 49 50 51 51 51 52 53 52 51 53 53 53 51 51 47 44 48 44 46 46 45 45 43 43 43 43 44
55 56 55 54 55 55 54 54 54 55 54 54 54 52 52 52 52 51 51 51 51 51 52 52 52 54 54 53 54 49 39 37 44 39 47 46 45 44 44 45 45 44 44
MSLP
1014.37 1015.02 1015.44 1015.82 1016.03 1016.25 1016.53 1016.72 1016.87 1016.97 1017.12 1017.33 1017.61 1017.82 1018.03 1018.14 1018.27 1018.55 1018.75 1018.92 1019.16 1019.27 1019.17 1019.21 1019.24 1019.20 1019.19 1019.26 1019.26 1019.27 1019.40 1019.53 1019.72 1019.52 1019.56 1019.71 1020.17 1020.54 1020.82 1020.92 1021.05 1021.15 1021.15
1013.65 1014.34 1014.86 1015.30 1015.70 1015.97 1016.19 1016.38 1016.63 1016.86 1016.91 1016.92 1017.20 1017.77 1017.86 1017.95 1018.22 1018.36 1018.52 1018.61 1018.81 1018.89 1018.84 1019.08 1019.07 1018.98 1018.91 1018.89 1018.92 1019.11 1019.18 1019.09 1019.32 1019.45 1019.47 1019.83 1020.18 1020.43 1020.81 1021.13 1021.15 1021.18 1021.32
1013.34 1013.96 1014.49 1014.93 1015.30 1015.65 1015.87 1016.06 1016.30 1016.58 1016.77 1016.96 1017.04 1017.18 1017.39 1017.65 1017.86 1018.11 1018.31 1018.39 1018.48 1018.49 1018.53 1018.65 1018.56 1018.61 1018.73 1018.69 1018.77 1018.92 1018.91 1018.90 1019.00 1019.19 1019.22 1019.33 1019.79 1020.22 1020.87 1021.14 1021.27 1021.30 1021.26
1013.12 1013.59 1014.04 1014.51 1014.82 1015.09 1015.32 1015.66 1015.92 1016.11 1016.44 1016.62 1016.72 1016.80 1016.86 1017.05 1017.44 1017.69 1017.91 1018.00 1018.08 1018.11 1018.09 1018.03 1018.05 1018.21 1018.31 1018.31 1018.41 1018.37 1018.47 1018.78 1018.87 1018.94 1019.01 1019.14 1019.29 1019.83 1020.37 1020.92 1021.30 1021.21 1021.29
1013.46 1013.62 1013.74 1014.24 1014.46 1014.59 1014.90 1015.16 1015.35 1015.69 1015.88 1016.10 1016.37 1016.35 1016.45 1016.71 1016.84 1017.11 1017.32 1017.45 1017.58 1017.58 1017.62 1017.67 1017.71 1017.74 1017.71 1017.82 1018.00 1017.91 1018.22 1018.48 1018.61 1018.80 1018.87 1018.90 1019.02 1019.48 1019.78 1019.97 1020.56 1021.01 1021.21
1013.65 1013.70 1013.87 1014.22 1014.45 1014.46 1014.37 1014.66 1014.93 1015.09 1015.27 1015.51 1015.85 1016.05 1016.21 1016.16 1016.15 1016.34 1016.57 1016.89 1016.99 1017.19 1017.20 1017.16 1017.19 1017.33 1017.38 1017.46 1017.56 1017.64 1017.76 1018.04 1018.39 1018.50 1018.53 1018.66 1018.49 1018.48 1018.77 1019.26 1020.04 1020.93 1021.41
1013.61 1013.81 1013.68 1014.53 1014.45 1014.35 1014.23 1014.20 1014.34 1014.62 1014.85 1014.97 1015.22 1015.53 1015.72 1015.74 1015.73 1015.71 1015.91 1016.22 1016.31 1016.58 1016.66 1016.68 1016.71 1016.71 1016.86 1017.15 1017.39 1017.50 1017.60 1017.68 1017.77 1017.84 1018.05 1018.18 1018.26 1018.32 1018.28 1018.65 1018.99 1019.29 1019.51
1013.59 1013.52 1013.80 1014.27 1014.29 1014.15 1014.15 1014.05 1013.80 1013.82 1014.20 1014.33 1014.43 1014.64 1015.04 1015.28 1015.37 1015.35 1015.49 1015.76 1015.86 1016.05 1016.23 1016.28 1016.35 1016.31 1016.46 1016.79 1017.29 1017.64 1017.92 1018.04 1017.99 1017.91 1018.09 1018.41 1018.59 1018.62 1018.62 1018.30 1018.38 1018.74 1019.31
1013.62 1013.15 1013.45 1013.79 1013.90 1014.18 1014.09 1013.97 1013.95 1013.47 1013.59 1013.99 1013.91 1014.05 1014.49 1014.91 1015.30 1015.27 1015.23 1015.40 1015.58 1015.76 1015.96 1016.10 1016.21 1016.31 1016.36 1016.68 1017.02 1017.63 1018.18 1018.44 1018.36 1018.13 1018.27 1018.54 1018.66 1018.52 1018.17 1018.30 1018.48 1018.84 1019.38
1013.51 1013.35 1013.46 1013.34 1013.34 1013.25 1013.55 1013.76 1013.98 1013.75 1013.61 1013.91 1014.17 1014.40 1014.72 1015.33 1015.63 1015.59 1015.82 1015.53 1015.60 1015.84 1016.21 1016.35 1016.43 1016.40 1016.46 1016.67 1016.98 1017.48 1017.98 1018.25 1018.42 1018.63 1018.72 1018.86 1018.96 1018.91 1018.53 1018.51 1018.64 1018.80 1019.24
1012.84 1012.73 1012.89 1013.16 1013.38 1013.53 1013.84 1014.11 1014.12 1013.90 1014.02 1014.33 1014.65 1015.16 1015.59 1015.79 1016.11 1016.14 1016.12 1015.92 1015.75 1015.95 1016.17 1016.34 1016.59 1016.65 1016.63 1016.69 1016.90 1017.19 1017.33 1017.84 1018.39 1018.61 1018.90 1019.21 1019.39 1019.54 1019.64 1019.34 1019.06 1019.01 1019.31
1012.95 1013.07 1013.34 1013.58 1013.84 1014.22 1014.08 1014.28 1014.00 1014.40 1014.44 1014.65 1015.78 1015.44 1016.09 1016.80 1016.71 1016.59 1016.39 1016.29 1016.07 1016.06 1016.52 1016.96 1017.10 1016.96 1016.72 1016.79 1016.85 1017.05 1017.34 1017.79 1018.25 1018.85 1019.31 1019.61 1019.81 1020.14 1020.38 1020.33 1019.90 1019.90 1019.70
1013.20 1013.57 1013.84 1014.18 1014.40 1014.48 1014.56 1014.63 1014.60 1014.83 1015.34 1015.47 1016.00 1015.77 1016.57 1016.95 1017.15 1017.05 1016.73 1016.46 1016.39 1016.71 1017.04 1017.19 1017.38 1017.33 1017.19 1017.30 1017.71 1018.00 1018.07 1018.29 1018.65 1019.07 1019.27 1020.04 1020.22 1020.30 1020.42 1020.46 1020.23 1020.17 1020.33
1013.70 1014.13 1014.40 1014.66 1015.09 1015.49 1015.62 1015.56 1015.71 1015.88 1016.16 1016.06 1016.16 1016.14 1016.89 1016.02 1016.70 1017.21 1016.90 1016.54 1016.97 1017.32 1017.40 1017.70 1017.85 1017.80 1017.80 1018.13 1018.39 1018.54 1018.67 1018.89 1019.17 1019.64 1020.08 1020.33 1020.44 1020.55 1020.79 1020.63 1020.82 1021.07 1021.09
1014.35 1014.66 1015.17 1015.34 1015.82 1016.38 1016.68 1016.85 1016.61 1017.03 1016.93 1016.54 1016.89 1017.24 1017.16 1017.11 1017.59 1017.22 1017.54 1017.17 1017.59 1017.61 1018.05 1018.19 1018.01 1018.05 1018.29 1018.54 1018.81 1018.99 1019.10 1019.27 1019.55 1019.93 1020.18 1020.25 1020.42 1020.56 1020.77 1020.76 1020.80 1020.79 1020.82
1014.99 1015.22 1015.65 1016.14 1016.41 1016.89 1017.19 1017.46 1017.51 1017.80 1017.33 1017.05 1017.20 1017.47 1017.87 1017.84 1017.65 1017.77 1017.79 1017.96 1017.86 1018.43 1018.34 1018.24 1018.45 1018.60 1018.88 1019.00 1019.13 1019.27 1019.48 1019.68 1020.07 1020.27 1020.51 1020.61 1020.78 1020.90 1020.92 1020.82 1020.78 1020.96 1021.13
1015.20 1015.67 1016.06 1016.30 1016.54 1017.11 1017.32 1017.38 1017.61 1017.95 1017.89 1017.82 1017.79 1017.73 1018.05 1018.33 1018.44 1018.67 1018.79 1018.51 1018.75 1018.53 1018.40 1018.72 1018.68 1019.05 1019.50 1019.66 1019.74 1019.79 1020.03 1020.16 1020.42 1020.73 1020.72 1020.84 1020.92 1020.94 1020.89 1021.02 1020.98 1021.08 1021.39
1015.59 1015.80 1016.15 1016.49 1016.62 1016.95 1017.50 1017.42 1017.89 1018.08 1018.33 1018.41 1018.48 1018.51 1018.33 1018.58 1018.98 1019.32 1019.32 1019.56 1019.15 1018.84 1018.66 1018.88 1019.09 1018.97 1019.40 1019.95 1020.16 1020.07 1020.15 1020.34 1020.66 1020.77 1020.87 1021.01 1021.00 1021.14 1021.26 1021.28 1021.20 1021.30 1021.65
1015.61 1015.94 1016.42 1016.76 1016.94 1016.99 1017.32 1017.70 1018.13 1018.35 1018.73 1018.92 1019.09 1019.28 1019.31 1019.28 1019.33 1019.19 1019.20 1019.52 1019.49 1019.33 1019.16 1019.27 1019.30 1019.35 1019.64 1019.87 1020.21 1020.35 1020.37 1020.43 1020.64 1020.88 1020.94 1021.11 1021.26 1021.34 1021.58 1021.79 1021.70 1021.59 1021.92
1015.76 1016.15 1016.46 1016.83 1016.91 1017.17 1017.37 1017.88 1017.98 1018.54 1018.92 1019.22 1019.42 1019.49 1019.47 1019.69 1019.51 1019.34 1019.21 1019.31 1019.43 1019.38 1019.57 1019.39 1019.75 1019.78 1019.91 1020.03 1020.41 1020.60 1020.68 1020.55 1020.71 1020.85 1020.99 1021.11 1021.23 1021.35 1021.68 1021.90 1021.86 1021.97 1022.11
1015.89 1016.09 1016.34 1016.84 1016.96 1016.98 1017.40 1017.77 1018.02 1018.32 1018.57 1018.95 1019.02 1018.93 1018.86 1018.92 1018.92 1018.96 1018.90 1018.84 1018.85 1018.91 1018.98 1019.12 1019.63 1019.74 1019.99 1019.93 1020.15 1020.50 1020.56 1020.66 1020.72 1020.81 1020.85 1021.16 1021.44 1021.56 1021.50 1021.68 1021.88 1021.97 1022.18
1015.61 1016.02 1016.38 1016.66 1016.94 1017.10 1017.27 1017.51 1017.75 1017.93 1018.41 1018.48 1018.36 1018.39 1018.49 1018.90 1018.89 1018.73 1018.54 1018.41 1018.23 1018.38 1018.56 1018.94 1019.26 1019.37 1019.64 1019.84 1020.08 1020.28 1020.32 1020.37 1020.45 1020.60 1020.86 1021.06 1021.27 1021.44 1021.54 1021.81 1022.12 1022.26 1022.29
1015.58 1015.91 1016.16 1016.35 1016.54 1016.54 1016.68 1016.96 1017.12 1017.22 1017.45 1017.84 1018.00 1018.06 1018.40 1018.65 1018.48 1018.39 1018.14 1018.04 1018.03 1017.92 1018.09 1018.37 1018.64 1018.88 1019.12 1019.41 1019.65 1019.81 1019.92 1019.95 1019.99 1020.28 1020.70 1021.07 1021.29 1021.43 1021.62 1021.87 1021.99 1022.32 1022.59
1015.34 1015.74 1015.97 1016.14 1016.33 1016.34 1016.41 1016.54 1016.63 1016.97 1017.18 1017.21 1017.25 1017.38 1017.69 1017.92 1017.92 1017.58 1017.52 1017.72 1017.69 1017.59 1017.48 1017.76 1018.07 1018.07 1018.50 1018.92 1019.15 1019.31 1019.55 1019.52 1019.62 1019.89 1020.16 1020.66 1021.05 1021.38 1021.53 1021.80 1022.07 1022.10 1022.31
1014.98 1015.35 1015.58 1015.67 1015.68 1015.65 1015.82 1016.04 1016.36 1016.67 1016.66 1016.58 1016.64 1016.82 1016.90 1017.21 1017.33 1017.10 1017.03 1017.22 1017.32 1017.48 1017.36 1017.48 1017.71 1017.78 1017.76 1018.24 1018.80 1018.97 1019.01 1019.39 1019.59 1019.64 1019.99 1020.45 1020.81 1021.01 1021.34 1021.58 1021.82 1021.94 1021.90
1014.71 1014.94 1015.20 1015.33 1015.30 1015.20 1015.27 1015.46 1015.56 1015.78 1015.90 1016.00 1015.80 1015.74 1015.93 1016.22 1016.23 1016.34 1016.52 1016.76 1016.87 1016.98 1017.12 1017.06 1017.09 1017.54 1017.90 1017.95 1018.05 1018.30 1018.68 1018.96 1019.14 1019.34 1019.74 1020.21 1020.47 1020.67 1020.97 1021.14 1021.25 1021.38 1021.43
Wind_Speed
12 10 8 7 7 6 6 6 6 4 5 6 6 6 7 6 5 4 5 5 5 5 3 4 5 2 2 3 2 2 2 3 3 2 1 2 2 5 3 3 3 3 3
12 11 10 8 7 7 7 7 6 6 5 6 6 6 6 6 5 6 6 6 7 6 6 4 6 3 4 3 2 3 3 3 3 3 2 2 2 3 3 3 3 3 3
9 9 8 8 8 8 7 7 7 7 7 6 5 6 6 7 6 6 6 6 6 6 6 6 7 4 4 3 3 4 3 2 3 3 3 1 2 3 3 2 2 2 2
7 9 10 9 10 9 8 7 7 7 7 7 7 7 7 6 6 6 6 6 6 6 6 6 6 6 6 6 5 6 4 4 3 3 3 3 2 3 3 3 3 2 3
3 5 6 4 5 7 7 7 8 8 8 7 8 8 7 6 6 7 7 7 7 6 6 6 6 7 9 7 3 3 4 4 3 4 3 2 3 3 7 4 3 3 4
5 4 3 3 4 5 6 6 6 8 9 9 8 8 8 7 10 13 9 6 6 6 7 6 6 7 7 7 6 4 6 5 4 4 3 4 4 4 4 5 4 4 3
4 3 4 3 3 2 3 6 7 8 6 8 9 8 9 8 11 12 12 6 5 6 6 6 4 4 6 5 5 7 5 4 1 3 4 4 2 2 2 6 8 5 4
7 5 1 4 5 3 4 5 6 5 8 8 9 9 8 5 7 9 6 6 5 5 5 6 6 6 6 7 6 4 1 4 4 1 1 3 1 3 4 1 2 3 3
7 8 10 7 4 5 4 5 5 4 4 5 5 6 7 5 1 6 7 5 5 5 3 1 3 5 5 7 7 6 4 3 7 12 12 10 10 10 3 3 3 3 1
4 6 6 6 8 5 3 4 3 5 3 3 4 5 6 5 5 6 5 0 3 3 2 2 4 3 2 5 6 7 6 5 5 4 4 6 7 8 14 6 2 2 2
4 3 2 3 3 4 3 2 3 4 5 3 5 6 6 6 5 7 9 4 3 3 3 1 2 8 7 4 5 7 6 9 8 5 4 4 5 7 6 6 7 4 4
4 5 5 5 4 3 6 3 6 4 7 6 5 5 6 3 6 5 6 5 3 2 2 2 3 4 7 4 2 5 11 9 5 5 4 4 4 4 4 4 6 7 7
7 7 8 8 6 5 5 5 5 5 4 3 4 4 3 2 2 8 9 7 7 4 3 7 7 9 11 11 13 11 7 5 4 3 5 2 2 2 2 1 3 5 5
7 7 6 7 7 7 5 5 4 4 3 4 3 4 3 3 3 2 3 5 10 7 7 5 8 9 11 7 5 5 3 3 3 3 3 3 2 3 2 1 3 2 2
5 6 5 5 6 5 6 4 4 3 3 3 3 2 2 3 2 4 2 3 3 5 4 1 2 3 4 4 3 4 3 3 3 2 2 3 3 2 2 2 2 3 1
5 4 3 4 4 3 4 5 11 5 7 8 7 3 2 2 4 7 8 9 8 2 1 2 2 3 2 2 3 2 2 3 2 1 2 2 2 1 1 1 1 2 1
5 5 3 4 4 3 2 3 4 4 9 11 10 9 7 5 6 7 5 6 3 2 2 2 3 3 2 2 2 2 2 2 2 2 2 1 1 0 0 1 0 1 2
4 6 3 3 3 3 2 2 2 3 2 2 9 6 8 8 7 6 5 3 2 3 2 3 2 3 3 2 1 1 2 2 1 1 0 1 0 1 1 1 1 2 3
4 3 3 3 2 3 4 4 2 2 1 2 2 1 3 5 5 4 2 1 1 1 2 2 1 2 2 2 2 2 2 2 1 1 1 2 1 1 1 1 2 4 5
3 3 4 3 3 3 3 4 3 3 3 3 3 3 3 3 2 3 2 1 1 2 2 2 2 1 2 2 2 2 1 1 1 1 1 1 1 1 2 3 2 2 2
2 3 4 2 3 4 4 4 4 3 3 4 5 5 7 3 4 4 3 3 3 2 3 3 3 3 3 4 4 4 3 3 2 2 3 2 3 1 2 3 2 2 4
3 3 4 4 3 3 4 3 4 4 5 5 4 2 8 2 2 3 3 4 4 4 3 3 4 5 4 4 4 4 4 4 3 3 3 2 2 2 3 3 3 2 2
3 4 4 4 4 5 4 4 4 4 4 5 4 4 4 4 5 4 4 4 4 4 4 4 5 4 4 4 5 5 5 5 5 4 4 4 4 3 3 3 3 2 2
4 4 5 5 4 6 5 5 4 5 5 5 5 5 5 5 5 6 5 4 4 5 4 4 5 6 5 5 5 4 5 4 3 5 7 5 4 4 3 2 3 4 3
4 4 4 4 4 5 5 5 5 6 6 6 6 5 5 5 6 6 5 5 4 4 5 5 4 6 8 9 8 8 8 10 7 6 5 6 7 7 4 3 3 3 3
5 5 4 4 4 4 5 5 5 5 5 6 7 6 6 6 6 5 5 5 5 5 6 5 5 8 8 7 9 10 8 10 10 9 6 5 6 5 5 5 6 4 4
Wind_Direction
186 192 187 197 197 190 194 203 211 217 222 215 219 220 209 206 212 209 229 224 219 237 255 226 242 245 237 224 218 201 202 176 177 272 152 101 113 141 143 116 124 123 110
193 189 197 190 191 194 200 199 188 212 224 217 199 205 201 207 211 213 226 212 218 228 239 236 249 226 251 227 200 227 226 198 159 235 188 144 147 144 152 150 183 125 114
179 189 195 195 184 201 203 198 188 197 207 209 209 204 212 206 212 210 217 222 220 226 233 227 244 230 252 249 237 231 234 231 209 176 232 146 127 155 143 162 166 126 129
169 178 183 192 198 205 207 200 201 204 202 208 209 215 208 208 211 218 214 224 230 226 230 232 240 237 240 250 246 240 209 220 211 219 207 191 157 143 127 159 185 175 164
161 182 156 171 203 191 202 219 206 201 212 211 218 218 211 209 218 214 212 216 222 234 235 237 239 236 227 231 226 244 202 216 211 225 224 185 182 146 201 176 165 141 214
182 149 128 163 189 204 195 214 220 220 206 205 214 218 226 223 214 215 204 209 215 220 239 242 229 235 234 226 245 260 209 201 217 215 229 218 223 205 169 176 145 146 227
164 188 169 231 275 286 278 214 208 220 217 207 216 212 224 226 221 217 207 218 211 223 237 239 241 225 206 195 142 128 91 48 280 217 231 216 234 223 169 197 189 186 203
172 179 214 232 246 295 301 282 231 195 215 214 214 212 216 226 233 240 215 217 213 229 242 231 222 225 210 179 168 170 87 16 334 4 85 70 12 289 238 270 227 184 71
199 191 191 211 220 235 259 272 272 204 192 217 217 208 199 180 143 182 174 191 209 227 244 8 319 268 219 201 171 164 128 82 66 84 91 78 53 33 339 178 187 154 136
237 202 201 195 211 209 244 304 275 250 247 144 78 56 65 82 37 6 304 157 199 194 161 144 56 8 299 215 194 171 172 181 147 118 72 47 37 31 38 46 147 161 114
278 234 216 176 128 100 110 146 124 75 88 94 93 72 65 55 41 0 321 278 241 220 203 207 319 327 310 294 217 183 203 153 159 130 111 82 51 40 29 31 29 72 127
108 100 89 89 93 93 105 124 90 86 95 85 20 92 76 51 16 353 342 321 294 167 136 70 37 42 52 26 151 169 145 132 131 116 97 75 73 60 41 37 50 55 50
90 83 80 68 55 49 47 40 69 78 71 98 139 92 33 104 82 46 52 58 60 81 81 97 94 75 73 70 67 61 71 91 97 94 96 67 71 105 102 83 71 74 75
84 86 78 78 71 45 39 27 29 41 105 92 75 75 206 72 67 10 43 65 66 86 84 68 80 75 68 75 74 70 86 93 100 103 106 130 130 118 138 105 86 71 63
88 91 84 83 82 77 63 27 52 44 330 63 78 92 39 72 22 42 28 84 108 92 98 96 65 63 68 62 60 62 65 75 96 119 156 151 140 144 179 189 186 188 159
105 87 91 103 100 103 111 97 62 54 53 69 71 90 56 26 111 98 88 81 100 159 70 85 62 75 97 112 110 85 70 92 78 132 122 123 135 194 235 192 165 187 174
116 126 124 121 121 138 141 125 122 56 64 56 57 58 54 90 77 98 100 108 66 38 83 93 113 92 80 67 90 96 118 133 119 138 141 142 116 145 173 281 327 125 89
122 135 133 151 139 143 172 132 133 137 139 65 40 51 75 89 89 80 38 347 34 28 89 133 121 125 133 136 163 121 104 89 97 179 237 276 118 117 31 3 72 106 116
125 119 131 142 152 148 130 119 120 106 112 126 100 61 82 108 122 101 54 100 71 45 67 60 123 134 141 148 152 142 148 158 152 94 71 74 83 89 79 86 91 131 120
147 181 160 155 144 130 126 143 136 149 164 184 198 198 159 177 186 180 163 143 168 161 180 162 206 186 175 169 170 170 176 134 135 145 150 120 167 153 172 167 155 140 148
169 150 162 156 175 171 170 180 180 178 188 201 213 204 192 171 187 185 190 195 205 221 197 190 207 203 205 184 177 187 192 196 187 185 172 199 183 165 157 147 153 148 141
187 178 161 181 198 220 228 225 208 203 210 213 217 205 177 225 230 212 210 220 220 224 218 218 211 198 191 189 188 192 195 194 190 194 199 186 169 145 145 129 136 135 141
177 186 196 218 220 224 230 228 220 210 217 224 212 195 185 213 222 234 233 228 221 227 225 205 201 199 197 205 200 196 194 209 205 183 180 178 177 169 163 158 157 154 185
180 180 196 218 233 219 213 220 221 233 231 229 219 208 199 202 217 228 233 245 245 231 211 197 204 197 193 213 209 208 219 224 196 195 179 172 179 170 159 161 185 197 180
198 199 215 233 247 216 208 210 200 215 223 219 219 206 203 203 213 221 223 223 231 226 220 210 212 208 200 207 211 213 211 216 207 183 172 173 183 182 180 182 183 195 189
195 208 225 244 253 235 211 209 216 211 223 226 215 204 198 199 212 214 215 213 216 221 228 221 213 221 225 223 221 222 209 210 200 198 180 177 180 184 184 199 201 195 214